Leonie — PHLE — position and weather

sailwx.info

Track history (hours):
 
Tides and Currents Weather Stations Pressure Air Temp Water Temp Dewpoint Dewpoint Depression Visibility Wind Speed Wind Dir Waves Ship Positions

Leonie

Last reported at 2014-Jul-28 13:33 UTC. Time now 2014-Jul-28 14:32 UTC.
Position N 40°34' E 014°17'.

Length 90 m; draft 3.7 m.

Type: Cargo ship. MMSI: 244772000.

Date/timePositionNaut miles runAvg speedWind from/ knotsBaromVisibWave heightAir tempDewpointWater temp
2014-Jul-28 13:33N 40°34' E 014°17'1211.7
2014-Jul-28 12:33N 40°46' E 014°17'4 0.1
2014-Jul-26 19:33N 40°50' E 014°17'8 7.6
2014-Jul-26 18:33N 40°45' E 014°10'1110.9
2014-Jul-26 17:33N 40°39' E 013°57'1111.0
2014-Jul-26 16:33N 40°34' E 013°45'1210.9
2014-Jul-26 15:29N 40°29' E 013°31'1110.8
2014-Jul-26 14:26N 40°24' E 013°17'2110.8
2014-Jul-26 12:32N 40°15' E 012°53'8410.4
2014-Jul-26 04:32N 39°37' E 011°16'4210.6
2014-Jul-26 00:31N 39°18' E 010°27'5110.3
2014-Jul-25 19:32N 38°57' E 009°27'9 9.4
2014-Jul-25 18:33N 38°53' E 009°16'1010.2
2014-Jul-25 17:33N 38°50' E 009°04'1010.3
2014-Jul-25 16:33N 38°47' E 008°51'1210.0
2014-Jul-25 15:19N 38°43' E 008°36'4910.1
2014-Jul-25 10:28N 38°30' E 007°36'1010.7
2014-Jul-25 09:30N 38°27' E 007°23'1110.6
2014-Jul-25 08:30N 38°24' E 007°10'9 9.8
2014-Jul-25 07:33N 38°22' E 006°59'2410.2
2014-Jul-25 05:13N 38°16' E 006°29'8 9.7
2014-Jul-25 04:24N 38°14' E 006°19'12 9.9
2014-Jul-25 03:14N 38°12' E 006°05'1210.3
2014-Jul-25 02:03N 38°09' E 005°50'610.7
2014-Jul-25 01:29N 38°07' E 005°42'1110.6
2014-Jul-25 00:27N 38°04' E 005°29'910.5
2014-Jul-24 23:34N 38°01' E 005°18'1110.5
2014-Jul-24 22:34N 37°59' E 005°05'1010.2
2014-Jul-24 21:33N 37°56' E 004°52'1010.2
2014-Jul-24 20:33N 37°53' E 004°40'21 9.9
2014-Jul-24 18:28N 37°48' E 004°14'9 9.8
2014-Jul-24 17:33N 37°46' E 004°04'1010.0
2014-Jul-24 16:33N 37°43' E 003°51'1010.1
2014-Jul-24 15:34N 37°40' E 003°39'10 9.8
2014-Jul-24 14:33N 37°37' E 003°27'9 9.4
2014-Jul-24 13:33N 37°34' E 003°16'10 9.5
2014-Jul-24 12:33N 37°32' E 003°04'10 9.8
2014-Jul-24 11:33N 37°29' E 002°53'10 9.8
2014-Jul-24 10:33N 37°26' E 002°41'1010.3
2014-Jul-24 09:33N 37°23' E 002°28'30 9.9
2014-Jul-24 06:33N 37°15' E 001°52'1010.0
2014-Jul-24 05:33N 37°12' E 001°40'1010.3
2014-Jul-24 04:33N 37°09' E 001°28'1110.7
2014-Jul-24 03:32N 37°07' E 001°15'1411.3
2014-Jul-24 02:17N 37°03' E 000°57'1911.2
2014-Jul-24 00:33N 36°59' E 000°34'1110.5
2014-Jul-23 23:28N 36°56' E 000°20'1010.2
2014-Jul-23 22:32N 36°53' E 000°08'1010.0
2014-Jul-23 21:33N 36°50' W 000°03'1010.2
2014-Jul-23 20:33N 36°48' W 000°16'1010.4
2014-Jul-23 19:33N 36°45' W 000°28'1010.1
2014-Jul-23 18:32N 36°43' W 000°41'1010.0
2014-Jul-23 17:33N 36°40' W 000°53'11 9.9
2014-Jul-23 16:25N 36°37' W 001°06'11 9.9
2014-Jul-23 15:20N 36°34' W 001°19'12 9.9
2014-Jul-23 14:06N 36°31' W 001°34'5 9.9
2014-Jul-23 13:33N 36°30' W 001°40'3210.0
2014-Jul-23 10:20N 36°22' W 002°19'14910.7
2014-Jul-22 20:25N 35°59' W 005°21'70 9.9
2014-Jul-22 13:22N 36°02' W 006°47'810.3
2014-Jul-22 12:33N 36°04' W 006°57'1010.0
2014-Jul-22 11:33N 36°07' W 007°09'1110.9
2014-Jul-22 10:33N 36°10' W 007°22'1611.1
2014-Jul-22 09:06N 36°14' W 007°41'611.3
2014-Jul-22 08:33N 36°15' W 007°49'2311.0
2014-Jul-22 06:26N 36°22' W 008°17'1011.0
2014-Jul-22 05:33N 36°24' W 008°28'1110.8
2014-Jul-22 04:34N 36°27' W 008°41'1110.9
2014-Jul-22 03:33N 36°29' W 008°54'1110.7
2014-Jul-22 02:33N 36°32' W 009°07'1010.5
2014-Jul-22 01:33N 36°37' W 009°19'1110.9
2014-Jul-22 00:33N 36°45' W 009°28'1110.7
2014-Jul-21 23:33N 36°55' W 009°34'1110.9
2014-Jul-21 22:33N 37°05' W 009°37'1110.9
2014-Jul-21 21:33N 37°16' W 009°41'1111.0
2014-Jul-21 20:33N 37°26' W 009°43'311.4
2014-Jul-21 20:18N 37°29' W 009°44'811.1
2014-Jul-21 19:33N 37°37' W 009°46'1111.4
2014-Jul-21 18:33N 37°48' W 009°50'1111.1
2014-Jul-21 17:33N 37°59' W 009°53'1111.3
2014-Jul-21 16:33N 38°10' W 009°56'1211.6
2014-Jul-21 15:30N 38°22' W 009°60'1010.8
2014-Jul-21 14:33N 38°32' W 010°02'1110.5
2014-Jul-21 13:33N 38°43' W 010°05'  
Track history (hours):
 
Tides and Currents Weather Stations Pressure Air Temp Water Temp Dewpoint Dewpoint Depression Visibility Wind Speed Wind Dir Waves Ship Positions

Leonie

Last reported at 2014-Jul-28 13:33 UTC. Time now 2014-Jul-28 14:32 UTC.
Position N 40°34' E 014°17'.

Length 90 m; draft 3.7 m.

Type: Cargo ship. MMSI: 244772000.

Date/timePositionNaut miles runAvg speedWind from/ knotsBaromVisibWave heightAir tempDewpointWater temp
2014-Jul-28 13:33N 40°34' E 014°17'1211.7
2014-Jul-28 12:33N 40°46' E 014°17'4 0.1
2014-Jul-26 19:33N 40°50' E 014°17'8 7.6
2014-Jul-26 18:33N 40°45' E 014°10'1110.9
2014-Jul-26 17:33N 40°39' E 013°57'1111.0
2014-Jul-26 16:33N 40°34' E 013°45'1210.9
2014-Jul-26 15:29N 40°29' E 013°31'1110.8
2014-Jul-26 14:26N 40°24' E 013°17'2110.8
2014-Jul-26 12:32N 40°15' E 012°53'8410.4
2014-Jul-26 04:32N 39°37' E 011°16'4210.6
2014-Jul-26 00:31N 39°18' E 010°27'5110.3
2014-Jul-25 19:32N 38°57' E 009°27'9 9.4
2014-Jul-25 18:33N 38°53' E 009°16'1010.2
2014-Jul-25 17:33N 38°50' E 009°04'1010.3
2014-Jul-25 16:33N 38°47' E 008°51'1210.0
2014-Jul-25 15:19N 38°43' E 008°36'4910.1
2014-Jul-25 10:28N 38°30' E 007°36'1010.7
2014-Jul-25 09:30N 38°27' E 007°23'1110.6
2014-Jul-25 08:30N 38°24' E 007°10'9 9.8
2014-Jul-25 07:33N 38°22' E 006°59'2410.2
2014-Jul-25 05:13N 38°16' E 006°29'8 9.7
2014-Jul-25 04:24N 38°14' E 006°19'12 9.9
2014-Jul-25 03:14N 38°12' E 006°05'1210.3
2014-Jul-25 02:03N 38°09' E 005°50'610.7
2014-Jul-25 01:29N 38°07' E 005°42'1110.6
2014-Jul-25 00:27N 38°04' E 005°29'910.5
2014-Jul-24 23:34N 38°01' E 005°18'1110.5
2014-Jul-24 22:34N 37°59' E 005°05'1010.2
2014-Jul-24 21:33N 37°56' E 004°52'1010.2
2014-Jul-24 20:33N 37°53' E 004°40'21 9.9
2014-Jul-24 18:28N 37°48' E 004°14'9 9.8
2014-Jul-24 17:33N 37°46' E 004°04'1010.0
2014-Jul-24 16:33N 37°43' E 003°51'1010.1
2014-Jul-24 15:34N 37°40' E 003°39'10 9.8
2014-Jul-24 14:33N 37°37' E 003°27'9 9.4
2014-Jul-24 13:33N 37°34' E 003°16'10 9.5
2014-Jul-24 12:33N 37°32' E 003°04'10 9.8
2014-Jul-24 11:33N 37°29' E 002°53'10 9.8
2014-Jul-24 10:33N 37°26' E 002°41'1010.3
2014-Jul-24 09:33N 37°23' E 002°28'30 9.9
2014-Jul-24 06:33N 37°15' E 001°52'1010.0
2014-Jul-24 05:33N 37°12' E 001°40'1010.3
2014-Jul-24 04:33N 37°09' E 001°28'1110.7
2014-Jul-24 03:32N 37°07' E 001°15'1411.3
2014-Jul-24 02:17N 37°03' E 000°57'1911.2
2014-Jul-24 00:33N 36°59' E 000°34'1110.5
2014-Jul-23 23:28N 36°56' E 000°20'1010.2
2014-Jul-23 22:32N 36°53' E 000°08'1010.0
2014-Jul-23 21:33N 36°50' W 000°03'1010.2
2014-Jul-23 20:33N 36°48' W 000°16'1010.4
2014-Jul-23 19:33N 36°45' W 000°28'1010.1
2014-Jul-23 18:32N 36°43' W 000°41'1010.0
2014-Jul-23 17:33N 36°40' W 000°53'11 9.9
2014-Jul-23 16:25N 36°37' W 001°06'11 9.9
2014-Jul-23 15:20N 36°34' W 001°19'12 9.9
2014-Jul-23 14:06N 36°31' W 001°34'5 9.9
2014-Jul-23 13:33N 36°30' W 001°40'3210.0
2014-Jul-23 10:20N 36°22' W 002°19'14910.7
2014-Jul-22 20:25N 35°59' W 005°21'70 9.9
2014-Jul-22 13:22N 36°02' W 006°47'810.3
2014-Jul-22 12:33N 36°04' W 006°57'1010.0
2014-Jul-22 11:33N 36°07' W 007°09'1110.9
2014-Jul-22 10:33N 36°10' W 007°22'1611.1
2014-Jul-22 09:06N 36°14' W 007°41'611.3
2014-Jul-22 08:33N 36°15' W 007°49'2311.0
2014-Jul-22 06:26N 36°22' W 008°17'1011.0
2014-Jul-22 05:33N 36°24' W 008°28'1110.8
2014-Jul-22 04:34N 36°27' W 008°41'1110.9
2014-Jul-22 03:33N 36°29' W 008°54'1110.7
2014-Jul-22 02:33N 36°32' W 009°07'1010.5
2014-Jul-22 01:33N 36°37' W 009°19'1110.9
2014-Jul-22 00:33N 36°45' W 009°28'1110.7
2014-Jul-21 23:33N 36°55' W 009°34'1110.9
2014-Jul-21 22:33N 37°05' W 009°37'1110.9
2014-Jul-21 21:33N 37°16' W 009°41'1111.0
2014-Jul-21 20:33N 37°26' W 009°43'311.4
2014-Jul-21 20:18N 37°29' W 009°44'811.1
2014-Jul-21 19:33N 37°37' W 009°46'1111.4
2014-Jul-21 18:33N 37°48' W 009°50'1111.1
2014-Jul-21 17:33N 37°59' W 009°53'1111.3
2014-Jul-21 16:33N 38°10' W 009°56'1211.6
2014-Jul-21 15:30N 38°22' W 009°60'1010.8
2014-Jul-21 14:33N 38°32' W 010°02'1110.5
2014-Jul-21 13:33N 38°43' W 010°05'  

Dump ship's entire track history